Flag for Germany Weather past 2 weeks in Melsungen, Hesse, Germany

Now
66 °F

Mild.


Feels Like: 66 °F
Forecast: 46 / 60 °F
Wind: 2 mph from South

Location: Fritzlar

Current Time: May 24, 2015 at 8:09:34 PM

Latest Report: May 24, 2015 at 7:00 PM


Visibility: 6 mi

Pressure: 30.02 "Hg

Humidity: 57%

Dew point: 50 °F

Location of MelsungenLocation

Historic Weather in Melsungen — Graph

°F

Melsungen temperature yesterday

Maximum temperature yesterday: 68 °F (at 3:00 PM)
Minimum temperature yesterday: 51 °F (at 6:00 AM)
Average temperature yesterday: 59 °F

Past Weeks' High & Low Weather Summary

 TemperatureHumidityPressure
High80 °F (May 12, 4:00 PM)96% (May 12, 6:00 AM)30.36 "Hg (May 12, 6:00 AM)
Low38 °F (May 16, 5:00 AM)34% (May 10, 7:00 PM)29.65 "Hg (May 19, 3:00 AM)
Average55 °F66%30.09 "Hg
* Reported May 9 7:00 PM — May 24 7:00 PM, Melsungen, Weather by CustomWeather, © 2015

Note: Actual official high and low records may vary slightly from our data, if they occured in-between our weather recording intervals... More about our weather records

Advertising

Melsungen weather history for previous 24 hours

 ConditionsComfort  
Time TempWeatherWind HumidityBarometerVisibility
7:00 PM
Sun, May 24
66 °FMild.2 mph57%30.02 "Hg6 mi
6:00 PM64 °FMild.2 mph64%30.03 "Hg6 mi
5:00 PM66 °FMild.3 mph56%30.04 "Hg7 mi
4:00 PM67 °FMild.2 mph54%30.05 "Hg7 mi
3:00 PM65 °FMild.2 mph58%30.07 "Hg6 mi
2:00 PM63 °FMild.1 mph62%30.09 "Hg6 mi
1:00 PM63 °FMild.2 mph64%30.10 "Hg5 mi
12:00 PM60 °FCool.N/A67%30.12 "Hg4 mi
11:00 AM56 °FCool.N/A73%30.13 "Hg4 mi
10:00 AM54 °FCool.N/A74%30.15 "Hg4 mi
9:00 AM51 °FCool.2 mph79%30.15 "Hg4 mi
8:00 AM50 °FCool.2 mph80%30.15 "Hg4 mi
7:00 AM49 °FCool.2 mph81%30.14 "Hg4 mi
6:00 AM49 °FCool.3 mph85%30.14 "Hg4 mi
5:00 AM50 °FCool.2 mph84%30.14 "Hg4 mi
4:00 AM50 °FCool.3 mph89%30.14 "Hg4 mi
3:00 AM52 °FCool.2 mph88%30.14 "Hg5 mi
2:00 AM53 °FCool.2 mph83%30.15 "Hg5 mi
1:00 AM54 °FCool.3 mph81%30.15 "Hg6 mi
12:00 AM54 °FCool.3 mph84%30.15 "Hg6 mi
10:00 PM
Sat, May 23
56 °FCool.3 mph84%30.14 "Hg4 mi
9:00 PM57 °FCool.5 mph80%30.12 "Hg5 mi
8:00 PM61 °FCool.5 mph72%30.10 "Hg4 mi
Weather by CustomWeather, © 2015

See weather overviewHow to use our weather pages